Terminal Aerodrome Forecast
Issued by NWS Lake Charles, LA

Home | Current Version | Previous Version | Text Only | Print | Product List | Glossary On
Versions: 1 2 3 4 5 6 7 8 9 10 11 12 13 14 15 16 17 18
000
FTUS44 KLCH 271100
TAFARA
TAF
KARA 271133Z 2712/2812 05007KT P6SM SCT100 BKN220
     FM271400 10008KT P6SM SCT035 SCT100 BKN220
     FM271600 10008KT P6SM VCTS SCT035CB BKN100 BKN220
      TEMPO 2719/2723 VRB15G20KT 3SM -TSRA BKN030CB OVC100
     FM272300 08003KT P6SM SCT100 BKN200=

USA.gov is the U.S. government's official web portal to all federal, state and local government web resources and services.